Weather History for Pipestone, MN

Change the Weather History Date:

Thursday, November 21, 2013

  Actual Average Record
Temperature  
Mean Temperature 22 °F -  
Max Temperature 28 °F 36 °F 68 °F (2012)
Min Temperature 15 °F 20 °F 1 °F (2008)
Degree Days  
Heating Degree Days 44    
Moisture  
Dew Point 14 °F    
Average Humidity 78    
Maximum Humidity 100    
Minimum Humidity 68    
Precipitation  
Precipitation 0.00 in - - ()
Sea Level Pressure  
Sea Level Pressure 30.33 in    
Wind  
Wind Speed 14 mph (North)    
Max Wind Speed 21 mph    
Max Gust Speed 32 mph    
Visibility 8 miles    
Events Snow    
Averages and records for this station are not official NWS values.
T = Trace of Precipitation, MM = Missing Value Source: NWS Daily Summary

Daily Weather History Graph

Daily Weather History Graph

Search for Another Location

Airport:

Trip Planner

Search our weather history database for the weather conditions in past years. The results will help you decide how hot, cold, wet, or windy it might be!

Date:

Astronomy

Nov. 21, 2013 Rise Set
Actual Time 7:28 AM CST 4:53 PM CST
Civil Twilight 6:56 AM CST 5:25 PM CST
Nautical Twilight 6:21 AM CST 6:00 PM CST
Astronomical Twilight 5:46 AM CST 6:35 PM CST
Moon 8:32 PM CST (11/21) 10:34 AM CST (11/21)
Length of Visible Light 10h 28m
Length of Day
9h 25m
Waning Gibbous, 85% of the Moon is Illuminated
Nov 21
Waning Gibbous
Nov 25
Last Quarter
Dec 2
New
Dec 9
First Quarter
Dec 17
Full

Hourly Weather History & Observations

Time (CST) Temp. Windchill Dew Point Humidity Pressure Visibility Wind Dir Wind Speed Gust Speed Precip Events Conditions
12:14 AM 28.4 °F 18.0 °F 28.4 °F 100% 30.03 in 5.0 mi North 12.7 mph 17.3 mph N/A   Overcast
12:33 AM 28.4 °F 17.5 °F 26.6 °F 93% 30.04 in 5.0 mi North 13.8 mph 19.6 mph N/A   Overcast
12:53 AM 28.4 °F 19.1 °F 26.6 °F 93% 30.06 in 7.0 mi North 10.4 mph - N/A   Overcast
1:13 AM 28.4 °F 19.1 °F 24.8 °F 86% 30.06 in 10.0 mi North 10.4 mph 18.4 mph N/A   Overcast
1:33 AM 26.6 °F 14.3 °F 24.8 °F 93% 30.08 in 10.0 mi North 16.1 mph 23.0 mph N/A   Overcast
1:54 AM 26.6 °F 18.2 °F 24.8 °F 93% 30.10 in 10.0 mi North 8.1 mph 21.9 mph N/A   Overcast
2:13 AM 26.6 °F 17.5 °F 23.0 °F 86% 30.10 in 10.0 mi North 9.2 mph - N/A   Overcast
2:33 AM 26.6 °F 15.7 °F 24.8 °F 93% 30.11 in 10.0 mi North 12.7 mph 23.0 mph N/A   Overcast
2:53 AM 26.6 °F 16.2 °F 23.0 °F 86% 30.12 in 10.0 mi North 11.5 mph - N/A   Overcast
3:13 AM 24.8 °F 12.4 °F 21.2 °F 86% 30.14 in 10.0 mi North 15.0 mph 27.6 mph N/A   Overcast
3:34 AM 24.8 °F 12.9 °F 21.2 °F 86% 30.14 in 10.0 mi North 13.8 mph 27.6 mph N/A   Overcast
3:53 AM 24.8 °F 14.0 °F 21.2 °F 86% 30.14 in 10.0 mi North 11.5 mph 17.3 mph N/A   Overcast
4:13 AM 24.8 °F 11.1 °F 21.2 °F 86% 30.14 in 10.0 mi North 18.4 mph 31.1 mph N/A   Overcast
4:33 AM 23.0 °F 8.0 °F 19.4 °F 86% 30.16 in 10.0 mi North 20.7 mph 26.5 mph N/A   Overcast
4:53 AM 23.0 °F 10.6 °F 17.6 °F 80% 30.18 in 10.0 mi North 13.8 mph 21.9 mph N/A   Overcast
5:13 AM 23.0 °F 9.6 °F 17.6 °F 80% 30.19 in 10.0 mi North 16.1 mph 24.2 mph N/A   Overcast
5:33 AM 23.0 °F 9.6 °F 17.6 °F 80% 30.20 in 10.0 mi North 16.1 mph 23.0 mph N/A   Overcast
5:53 AM 21.2 °F 7.3 °F 15.8 °F 80% 30.21 in 10.0 mi North 16.1 mph 29.9 mph N/A   Overcast
6:13 AM 21.2 °F 7.8 °F 15.8 °F 80% 30.22 in 10.0 mi North 15.0 mph 25.3 mph N/A   Overcast
6:33 AM 21.2 °F 10.1 °F 15.8 °F 80% 30.23 in 10.0 mi North 10.4 mph 24.2 mph N/A   Overcast
6:53 AM 21.2 °F 7.3 °F 15.8 °F 80% 30.25 in 10.0 mi North 16.1 mph 24.2 mph N/A   Overcast
7:14 AM 19.4 °F 5.0 °F 12.2 °F 74% 30.26 in 10.0 mi North 16.1 mph 26.5 mph N/A   Mostly Cloudy
7:33 AM 19.4 °F 4.5 °F 12.2 °F 74% 30.27 in 10.0 mi North 17.3 mph 24.2 mph N/A   Mostly Cloudy
7:53 AM 19.4 °F 4.5 °F 12.2 °F 74% 30.27 in 10.0 mi North 17.3 mph 26.5 mph N/A   Scattered Clouds
8:13 AM 17.6 °F 1.3 °F 12.2 °F 79% 30.26 in 10.0 mi North 19.6 mph 32.2 mph N/A   Clear
8:33 AM 19.4 °F 5.0 °F 12.2 °F 74% 30.27 in 10.0 mi North 16.1 mph 23.0 mph N/A   Clear
8:53 AM 19.4 °F 3.6 °F 12.2 °F 74% 30.27 in 10.0 mi North 19.6 mph 24.2 mph N/A   Scattered Clouds
9:13 AM 19.4 °F 4.5 °F 12.2 °F 74% 30.30 in 10.0 mi North 17.3 mph 23.0 mph N/A   Scattered Clouds
9:33 AM 19.4 °F 5.0 °F 12.2 °F 74% 30.32 in 10.0 mi North 16.1 mph 28.8 mph N/A   Scattered Clouds
9:54 AM 19.4 °F 3.6 °F 12.2 °F 74% 30.33 in 10.0 mi North 19.6 mph 29.9 mph N/A   Clear
10:13 AM 19.4 °F 5.5 °F 12.2 °F 74% 30.33 in 10.0 mi North 15.0 mph 26.5 mph N/A   Clear
10:33 AM 19.4 °F 4.5 °F 12.2 °F 74% 30.34 in 10.0 mi North 17.3 mph 28.8 mph N/A   Clear
10:53 AM 19.4 °F 5.0 °F 12.2 °F 74% 30.33 in 10.0 mi NNE 16.1 mph 24.2 mph N/A   Clear
11:13 AM 21.2 °F 7.3 °F 12.2 °F 68% 30.34 in 10.0 mi NNE 16.1 mph 27.6 mph N/A   Clear
11:33 AM 21.2 °F 6.8 °F 12.2 °F 68% 30.33 in 10.0 mi North 17.3 mph 27.6 mph N/A   Scattered Clouds
11:53 AM 21.2 °F 7.3 °F 12.2 °F 68% 30.33 in 10.0 mi NNE 16.1 mph 26.5 mph N/A   Scattered Clouds
12:13 PM 21.2 °F 6.4 °F 12.2 °F 68% 30.33 in 10.0 mi North 18.4 mph 25.3 mph N/A   Scattered Clouds
12:34 PM 21.2 °F 6.8 °F 14.0 °F 74% 30.34 in 10.0 mi NNE 17.3 mph 27.6 mph N/A   Mostly Cloudy
12:53 PM 21.2 °F 8.3 °F 14.0 °F 74% 30.34 in 10.0 mi NNE 13.8 mph 26.5 mph N/A   Mostly Cloudy
1:13 PM 21.2 °F 7.8 °F 12.2 °F 68% 30.34 in 10.0 mi North 15.0 mph 28.8 mph N/A   Mostly Cloudy
1:33 PM 21.2 °F 7.8 °F 12.2 °F 68% 30.34 in 10.0 mi North 15.0 mph 25.3 mph N/A   Scattered Clouds
1:53 PM 21.2 °F 6.8 °F 14.0 °F 74% 30.35 in 10.0 mi North 17.3 mph 26.5 mph N/A   Scattered Clouds
2:13 PM 19.4 °F 4.5 °F 14.0 °F 80% 30.36 in 7.0 mi NNE 17.3 mph 25.3 mph N/A   Scattered Clouds
2:33 PM 19.4 °F 4.5 °F 14.0 °F 80% 30.37 in 3.0 mi North 17.3 mph 23.0 mph N/A Snow Light Snow
2:53 PM 19.4 °F 5.0 °F 14.0 °F 80% 30.37 in 4.0 mi North 16.1 mph 25.3 mph N/A Snow Light Snow
3:14 PM 19.4 °F 5.5 °F 14.0 °F 80% 30.38 in 4.0 mi North 15.0 mph 24.2 mph N/A Snow Light Snow
3:33 PM 19.4 °F 5.0 °F 15.8 °F 86% 30.39 in 2.0 mi North 16.1 mph 24.2 mph N/A Snow Light Snow
3:53 PM 17.6 °F 3.2 °F 14.0 °F 86% 30.40 in 1.2 mi North 15.0 mph 21.9 mph N/A Snow Light Snow
4:13 PM 17.6 °F 3.2 °F 14.0 °F 86% 30.41 in 1.5 mi North 15.0 mph 21.9 mph N/A Snow Light Snow
4:33 PM 17.6 °F 2.7 °F 14.0 °F 86% 30.42 in 1.0 mi North 16.1 mph 23.0 mph N/A Snow Light Snow
4:54 PM 17.6 °F 4.3 °F 14.0 °F 86% 30.44 in 1.0 mi North 12.7 mph 23.0 mph N/A Snow Light Snow
5:13 PM 17.6 °F 3.7 °F 14.0 °F 86% 30.44 in 3.0 mi North 13.8 mph 19.6 mph N/A Snow Light Snow
5:33 PM 17.6 °F 3.7 °F 12.2 °F 79% 30.45 in 2.5 mi North 13.8 mph 20.7 mph N/A Snow Light Snow
5:53 PM 17.6 °F 3.2 °F 14.0 °F 86% 30.45 in 2.5 mi North 15.0 mph 20.7 mph N/A Snow Light Snow
6:13 PM 17.6 °F 3.7 °F 12.2 °F 79% 30.46 in 3.0 mi North 13.8 mph 20.7 mph N/A Snow Light Snow
6:33 PM 17.6 °F 4.3 °F 12.2 °F 79% 30.46 in 4.0 mi North 12.7 mph 21.9 mph N/A Snow Light Snow
6:53 PM 17.6 °F 5.0 °F 12.2 °F 79% 30.47 in 10.0 mi North 11.5 mph 21.9 mph N/A   Scattered Clouds
7:13 PM 17.6 °F 3.7 °F 10.4 °F 73% 30.48 in 10.0 mi North 13.8 mph 21.9 mph N/A   Mostly Cloudy
7:33 PM 17.6 °F 4.3 °F 10.4 °F 73% 30.48 in 10.0 mi North 12.7 mph 21.9 mph N/A   Overcast
7:53 PM 17.6 °F 3.2 °F 10.4 °F 73% 30.49 in 10.0 mi North 15.0 mph 19.6 mph N/A   Overcast
8:14 PM 17.6 °F 4.3 °F 8.6 °F 68% 30.50 in 10.0 mi North 12.7 mph 19.6 mph N/A   Overcast
8:33 PM 17.6 °F 4.3 °F 8.6 °F 68% 30.50 in 10.0 mi North 12.7 mph 20.7 mph N/A   Overcast
8:53 PM 15.8 °F 0.9 °F 8.6 °F 73% 30.51 in 10.0 mi North 15.0 mph 24.2 mph N/A   Overcast
9:13 PM 15.8 °F 0.9 °F 8.6 °F 73% 30.52 in 10.0 mi North 15.0 mph 20.7 mph N/A   Overcast
9:33 PM 15.8 °F 2.7 °F 8.6 °F 73% 30.53 in 10.0 mi North 11.5 mph 20.7 mph N/A   Overcast
9:53 PM 15.8 °F 3.4 °F 8.6 °F 73% 30.54 in 10.0 mi North 10.4 mph 19.6 mph N/A   Overcast
10:13 PM 15.8 °F 3.4 °F 8.6 °F 73% 30.54 in 10.0 mi North 10.4 mph 17.3 mph N/A   Overcast
10:33 PM 15.8 °F 5.1 °F 6.8 °F 68% 30.54 in 10.0 mi North 8.1 mph - N/A   Mostly Cloudy
10:54 PM 15.8 °F 3.4 °F 6.8 °F 68% 30.54 in 10.0 mi North 10.4 mph 17.3 mph N/A   Mostly Cloudy
11:13 PM 15.8 °F 4.2 °F 6.8 °F 68% 30.55 in 10.0 mi North 9.2 mph - N/A   Scattered Clouds
11:33 PM 15.8 °F 2.7 °F 6.8 °F 68% 30.55 in 10.0 mi North 11.5 mph 17.3 mph N/A   Mostly Cloudy
11:53 PM 15.8 °F 2.1 °F 6.8 °F 68% 30.56 in 10.0 mi North 12.7 mph 18.4 mph N/A   Scattered Clouds